Theta_e
312 311 310 311 313 311 311 311 313 311 309 311 314 317 320 323 323 323 323 325 326 326 327 329 325 330 332 334 329 321 334 338 335 332 334 323 326 322 324 328 331 333 330 331 336
312 312 310 313 312 312 311 310 312 312 310 310 312 315 318 321 323 323 322 323 325 326 330 329 325 328 333 334 336 333 336 337 330 328 329 325 324 325 327 329 331 333 332 333 335
313 312 311 311 311 312 312 310 310 312 311 313 311 313 315 319 323 323 321 320 323 326 328 331 327 326 331 334 336 334 338 329 326 321 327 320 321 321 325 329 328 330 332 333 334
314 313 311 311 311 311 312 311 310 313 312 310 311 312 314 319 321 321 321 321 320 326 327 329 328 327 329 334 333 336 333 331 331 330 331 330 322 322 323 327 325 326 329 333 333
314 314 313 310 311 311 311 311 309 310 312 311 308 312 315 319 319 320 321 322 322 327 327 328 330 327 327 328 333 334 332 331 331 331 330 321 325 324 322 322 324 321 331 334 334
313 314 313 313 310 312 312 311 311 308 310 311 309 310 314 317 316 318 320 321 323 326 327 327 328 325 325 328 330 329 330 332 332 331 330 333 333 319 326 319 322 325 329 333 334
310 312 314 313 312 310 311 312 310 310 307 308 310 312 313 312 315 316 317 322 324 324 326 327 326 325 325 328 329 329 331 332 332 329 329 328 334 328 327 321 322 325 327 331 333
310 310 310 314 313 310 310 311 310 311 307 307 309 312 311 310 314 317 319 321 324 325 325 326 325 325 326 326 328 329 329 328 325 328 328 327 336 332 324 320 322 323 327 330 332
308 309 309 312 314 312 309 310 311 310 308 310 311 311 309 310 312 315 320 320 324 324 323 323 324 326 327 329 329 329 325 328 325 329 329 328 335 332 323 322 324 323 325 328 330
307 307 309 309 309 313 310 309 310 310 310 310 311 309 309 309 311 313 318 321 322 322 323 323 326 328 328 329 332 327 328 322 324 328 330 331 333 331 326 321 322 322 322 325 328
306 306 308 308 307 309 312 310 310 311 310 310 311 308 308 310 311 312 317 320 320 323 328 325 328 329 327 325 324 323 324 324 323 324 328 329 330 330 330 329 328 329 326 322 323
305 304 305 308 307 308 312 310 310 310 311 309 309 309 309 311 312 314 316 319 320 323 323 326 327 325 324 325 327 326 327 326 325 324 327 326 331 330 329 330 328 329 329 327 324
304 304 303 305 307 308 311 309 309 308 310 309 310 309 310 310 311 315 316 317 320 322 323 324 323 322 325 326 327 327 327 326 327 325 324 325 325 324 325 326 327 326 325 325 326
304 304 304 303 306 308 306 308 308 307 310 309 311 309 310 310 311 313 316 315 317 320 320 323 321 323 325 325 326 329 325 326 327 328 329 324 326 322 322 323 324 324 325 324 324
303 304 304 303 306 307 308 307 308 304 313 310 310 309 309 308 310 313 314 315 314 317 319 321 321 323 325 325 324 326 322 324 326 328 329 328 330 325 323 323 323 324 325 325 325
303 302 303 304 305 306 308 307 306 307 312 310 309 311 311 309 310 313 315 313 313 316 318 319 315 319 321 321 322 323 323 324 325 327 331 327 328 326 325 324 324 324 325 325 325
302 302 302 303 305 305 307 306 308 310 306 308 311 311 311 310 312 312 313 314 314 315 317 317 318 315 315 322 323 323 325 329 330 328 331 325 328 327 323 322 323 323 323 324 325
302 302 302 304 304 305 308 305 310 307 309 307 309 310 311 311 311 312 312 312 311 311 312 313 315 316 316 320 322 326 325 326 327 331 326 325 329 327 323 322 322 321 322 323 323
302 302 303 304 304 305 307 308 309 307 304 308 308 311 311 310 310 311 312 312 311 310 310 313 313 309 315 316 319 324 325 323 325 315 323 322 324 323 320 320 322 323 322 322 322
302 302 302 303 304 306 306 310 306 304 305 307 309 310 312 311 310 310 311 310 311 311 308 310 308 308 308 314 317 321 321 325 324 330 330 325 324 323 323 321 321 321 321 321 321
302 302 302 303 304 303 308 309 302 302 306 308 308 309 309 311 310 310 311 308 309 310 311 310 312 314 314 315 317 318 322 322 324 324 327 327 325 321 321 321 320 321 320 320 321
302 303 302 304 305 303 308 305 301 305 304 304 305 307 309 310 310 310 309 308 308 309 312 311 310 311 312 311 316 316 320 319 324 325 325 325 323 317 320 320 319 320 320 320 320
300 301 303 304 306 306 304 304 303 304 304 305 305 305 306 308 309 308 307 304 305 308 310 310 311 310 308 305 305 309 316 319 319 317 320 327 324 318 318 316 317 318 319 319 317
300 303 303 305 303 306 306 304 304 302 302 303 304 305 306 307 305 307 306 305 305 307 308 308 308 309 309 307 306 305 306 311 316 319 320 321 320 319 320 319 317 318 315 316 316
301 304 301 305 304 304 305 304 305 303 301 302 304 305 305 306 306 306 306 306 306 307 308 307 311 308 307 307 309 311 311 311 312 314 315 316 318 317 317 313 313 315 314 312 311
302 303 301 304 303 304 304 305 305 303 303 303 306 305 305 305 305 307 307 306 309 307 309 308 312 311 310 310 311 313 311 311 312 313 312 314 314 313 313 312 313 316 318 316 316
296 299 305 304 303 305 305 304 304 302 300 302 305 303 303 304 303 305 304 305 306 308 308 310 311 307 309 306 304 306 308 306 306 304 305 309 311 311 312 313 313 313 317 317 317
Wind_Speed
34 33 31 28 26 23 24 22 18 15 17 17 13 11 11 10 11 8 13 8 9 1 5 5 3 2 3 4 3 2 4 8 5 4 6 1 4 3 1 4 4 8 3 2 16
37 36 33 30 29 26 23 22 20 16 15 14 15 12 9 9 7 17 13 16 8 8 3 10 7 6 3 3 3 5 7 15 4 4 6 6 2 4 5 7 7 7 7 6 18
39 37 35 35 32 29 27 23 22 19 16 13 14 12 9 7 4 10 20 24 20 14 3 3 6 5 5 5 5 6 10 7 6 4 6 5 5 3 7 8 13 12 12 13 18
41 39 36 36 34 32 29 26 23 19 18 17 13 12 11 12 10 3 9 20 23 16 11 6 9 7 8 8 6 6 7 8 4 5 1 5 8 6 10 17 4 6 8 18 19
40 42 39 36 35 34 31 29 26 23 18 17 16 14 10 9 15 7 3 5 19 17 17 14 13 11 12 9 8 10 8 10 9 5 5 2 10 11 13 15 11 2 11 16 19
34 40 42 38 36 35 32 32 29 26 24 17 15 16 11 21 13 18 9 6 16 21 20 20 10 8 10 7 15 9 12 12 9 8 5 5 9 2 7 6 12 8 12 14 17
35 28 40 41 39 37 35 31 31 26 24 23 17 16 12 19 4 17 14 6 16 24 17 20 9 12 7 6 6 5 8 10 13 11 6 7 11 15 15 11 10 13 10 13 17
32 32 33 41 44 39 36 33 31 27 23 22 18 13 8 11 14 6 9 9 12 16 19 15 13 10 8 4 6 9 6 12 8 15 6 10 21 16 6 10 15 13 13 12 15
32 28 26 28 41 41 37 35 31 27 22 21 13 10 8 8 19 14 9 15 10 11 8 6 6 8 9 12 10 11 13 18 10 13 8 13 14 15 7 9 14 14 13 12 12
31 30 26 24 29 39 38 36 30 25 21 17 9 5 8 13 12 22 8 12 6 8 6 7 6 11 13 14 19 15 17 11 14 10 13 13 21 13 10 6 9 13 13 12 13
27 30 29 28 24 32 41 35 11 8 27 14 14 3 2 10 15 23 14 9 12 6 11 9 11 18 29 27 16 10 16 13 11 8 8 16 21 22 16 14 14 17 15 15 16
26 26 30 26 25 26 42 19 31 8 17 10 6 6 4 9 8 15 21 13 16 16 14 7 19 29 18 16 13 12 12 13 7 6 9 13 17 21 19 20 18 17 18 19 15
28 26 27 27 22 22 22 37 33 30 6 10 8 18 8 7 6 18 25 19 14 18 18 19 14 17 13 14 18 16 19 12 10 4 9 11 21 25 21 23 21 19 19 19 19
28 28 25 26 19 22 26 44 35 25 7 11 10 12 7 7 5 14 19 18 10 21 22 14 18 9 13 13 13 19 18 8 7 6 10 11 9 16 15 21 25 24 19 21 21
29 28 29 31 10 21 22 53 38 5 8 21 12 13 12 13 12 8 9 10 21 10 13 10 11 23 11 26 19 14 11 16 17 15 11 13 8 13 17 20 23 21 20 22 22
30 34 30 29 29 13 30 49 27 5 8 10 15 16 16 13 7 9 12 6 5 10 11 8 1 5 22 15 18 9 3 7 13 14 14 27 18 16 20 18 17 19 20 21 22
34 33 34 32 26 25 46 16 10 7 8 9 20 23 27 12 13 15 19 21 13 12 17 23 14 1 2 13 13 16 13 4 7 7 10 17 16 26 8 21 19 21 21 20 20
34 34 37 37 31 33 39 10 11 10 14 12 19 25 19 20 11 15 19 15 23 19 7 15 12 23 16 8 15 22 20 6 12 6 18 9 11 19 18 25 23 17 18 17 16
36 34 29 37 36 37 14 19 8 18 10 19 22 23 8 13 9 14 17 18 20 22 13 15 16 7 16 14 11 9 18 24 8 0 5 8 20 23 5 9 15 21 18 21 18
35 23 26 37 39 27 11 14 10 12 13 22 16 19 18 24 18 21 21 19 19 22 12 7 6 13 11 15 19 18 6 11 8 8 10 8 22 15 15 21 16 14 17 19 17
26 9 20 38 38 11 11 10 7 15 20 18 17 14 18 23 18 23 22 7 24 20 15 5 4 4 10 15 23 15 16 8 4 14 10 17 15 19 19 14 17 21 22 23 20
10 10 29 45 13 11 12 9 11 22 9 6 9 10 23 25 20 19 19 15 19 16 24 11 3 9 14 1 6 19 18 21 10 9 6 15 24 2 12 19 17 21 24 24 22
9 4 29 41 16 13 5 9 11 18 17 11 6 6 16 20 13 18 16 11 16 21 18 15 9 6 4 6 11 11 15 15 14 5 7 11 22 20 19 8 12 16 17 15 8
6 7 6 13 5 10 16 10 12 11 6 7 10 17 22 20 4 19 14 6 12 18 7 16 6 12 16 9 2 7 18 18 14 9 18 18 23 29 23 18 22 18 12 14 11
4 5 3 15 17 12 18 17 25 13 5 9 7 22 15 11 8 8 14 7 11 13 12 13 7 10 17 13 9 11 14 12 17 27 18 24 22 30 17 20 24 18 16 12 14
6 5 3 17 20 19 20 18 33 17 15 13 16 20 14 11 12 14 16 13 7 7 13 12 3 8 7 14 13 12 17 17 17 20 16 18 22 35 26 21 23 22 22 20 23
3 4 11 17 19 16 11 22 26 21 4 8 20 16 12 14 11 14 8 10 14 17 18 13 6 5 9 11 6 7 20 21 21 22 20 21 25 34 30 25 25 25 24 26 23
Wind_Direction
224 225 227 231 222 221 226 231 231 231 229 225 221 219 223 232 239 232 229 216 230 286 192 184 179 129 118 110 101 128 215 254 251 242 285 67 228 148 12 205 200 193 244 78 158
224 220 222 226 225 224 224 225 227 223 220 219 216 211 212 225 239 244 225 216 204 226 206 193 193 160 144 132 133 179 197 231 221 288 295 310 279 315 230 214 220 216 196 149 164
225 221 221 221 221 223 225 220 221 217 208 208 207 203 198 187 283 250 239 225 218 212 247 211 187 175 175 177 177 161 227 192 148 120 351 319 293 258 255 237 245 232 200 172 178
224 223 223 220 219 218 220 214 215 211 211 213 208 193 183 176 220 109 229 234 217 210 217 203 182 189 191 188 182 196 198 186 211 154 192 290 312 269 243 258 352 277 205 175 186
226 223 223 223 218 217 216 214 211 209 207 207 201 189 169 207 221 162 4 301 211 201 201 203 190 194 199 199 179 229 204 212 221 238 187 250 257 284 270 263 247 281 181 186 192
228 223 223 220 220 215 213 211 210 209 208 204 194 187 200 223 218 241 259 341 186 196 201 201 213 198 209 210 205 210 220 217 216 230 249 188 261 266 258 320 237 215 205 200 199
229 224 223 221 219 216 212 209 209 204 204 203 195 182 218 223 224 229 239 240 193 195 197 202 210 195 159 192 213 213 207 231 231 239 245 222 240 240 260 260 258 234 218 209 207
224 226 228 224 217 214 210 206 207 200 197 192 190 182 231 226 233 219 203 201 193 197 210 208 211 217 217 137 157 211 232 231 224 207 192 249 255 248 241 245 252 239 229 217 214
222 221 225 221 206 212 208 205 201 196 190 174 165 188 225 207 206 216 193 202 177 182 179 158 165 208 191 200 203 208 234 225 227 206 182 211 256 246 211 227 250 244 230 222 225
219 218 219 221 215 210 207 197 193 186 168 153 153 178 213 209 182 194 188 193 156 130 117 188 201 202 206 204 217 208 228 221 219 196 206 215 250 243 218 188 245 258 251 235 227
216 215 213 218 211 213 197 175 164 170 177 187 190 153 126 152 164 193 184 179 188 189 199 183 205 206 206 211 223 284 222 237 220 193 208 238 247 249 253 247 245 251 250 244 238
213 211 212 214 213 205 191 184 182 159 178 206 204 178 139 164 154 178 181 186 200 212 209 200 212 218 219 213 220 225 233 225 229 193 227 252 251 259 251 248 242 248 253 250 250
211 210 211 212 211 204 203 188 179 151 150 196 181 186 158 184 165 179 185 190 201 207 203 203 228 227 213 210 202 221 230 227 246 199 252 270 265 258 249 247 242 239 243 254 248
211 209 205 205 205 201 202 185 184 172 161 168 185 196 167 170 165 181 198 186 204 221 215 220 230 204 198 213 196 221 212 239 242 232 250 195 276 247 246 231 236 237 227 240 243
216 210 205 195 179 195 212 178 184 267 207 162 168 162 170 179 128 180 184 192 201 197 199 204 212 214 208 218 204 235 216 222 235 246 270 241 265 264 240 236 236 230 227 234 235
214 210 202 203 206 191 193 172 169 195 204 161 146 165 155 183 156 137 173 207 183 216 230 247 207 207 225 224 217 166 128 219 235 239 244 244 239 250 234 234 244 240 235 233 232
213 209 205 204 205 185 166 162 182 202 140 158 168 163 176 170 152 169 175 184 177 183 215 219 211 131 66 208 209 207 201 227 224 224 244 230 232 238 260 231 241 247 247 237 238
208 205 209 207 196 184 177 191 193 137 165 178 166 164 178 147 162 173 165 183 208 210 209 208 218 212 191 222 210 205 199 201 218 217 234 161 228 242 233 250 249 246 254 256 253
203 203 201 199 190 183 196 193 174 156 166 158 152 162 150 162 145 170 187 191 194 197 192 199 232 236 205 202 213 185 216 231 279 78 287 220 245 265 219 247 234 243 246 249 248
193 195 203 194 187 178 201 196 142 165 148 146 155 180 173 167 167 182 187 200 195 194 208 187 233 219 214 206 216 238 179 217 216 204 230 225 242 244 197 217 227 241 252 261 254
183 189 200 189 179 182 217 188 131 159 150 161 160 173 179 175 177 185 185 181 195 189 193 188 225 121 171 200 208 212 228 221 261 230 239 252 251 247 244 226 229 233 240 246 252
175 190 175 174 184 191 208 152 142 160 169 116 140 167 177 176 176 186 191 201 190 166 199 197 305 237 218 68 287 231 226 223 256 237 232 250 261 125 226 233 224 225 226 237 243
173 136 172 174 190 178 157 148 141 163 165 136 133 166 167 170 174 197 197 193 179 180 181 172 221 215 244 240 242 230 226 236 248 277 258 257 260 265 250 270 256 255 255 255 256
153 153 161 192 161 181 163 150 136 177 132 100 115 142 146 171 130 188 201 173 189 192 152 169 209 214 224 217 30 208 232 226 212 240 253 248 285 284 289 272 267 272 267 266 263
156 153 196 177 185 166 157 155 146 164 98 128 150 162 151 156 155 184 175 145 162 180 174 182 219 222 252 272 285 276 267 266 246 238 241 259 267 274 284 296 302 283 278 270 270
140 135 166 157 158 159 141 168 156 157 162 180 160 165 162 152 177 161 157 168 154 168 181 201 235 202 267 260 252 253 268 265 250 251 254 253 263 268 269 272 275 282 283 274 272
139 100 138 144 155 157 157 161 166 149 40 126 137 131 109 141 140 158 130 140 157 166 188 188 195 174 249 254 282 259 235 242 245 247 242 252 255 274 269 263 256 260 260 270 267